Terminal Aerodrome Forecast
Issued by NWS

Home | Current Version | Previous Version | Text Only | Print | Product List | Glossary On
Versions: 1 2 3 4 5 6 7 8 9 10 11 12 13 14 15 16
000
FTPA31 PHFO 190314 AAA
TAFHOG
TAF AMD
PHOG 190314Z 1903/1924 05014G20KT P6SM VCSH FEW035 SCT050
     FM191900 05025G35KT P6SM VCSH FEW035 SCT050=

USA.gov is the U.S. government's official web portal to all federal, state and local government web resources and services.